Regional Weather Roundup
Issued by NWS

Home | Current Version | Previous Version | Graphics & Text | Print | Product List | Glossary On
Versions: 1 2 3 4 5 6 7 8 9 10 11 12 13 14 15 16 17 18 19 20 21 22 23 24 25 26 27 28 29 30 31 32 33 34 35 36 37 38 39 40 41 42 43 44 45 46 47 48 49 50
589
ASUS45 KCYS 170010
RWRWY

WYOMING REGIONAL WEATHER ROUNDUP
NATIONAL WEATHER SERVICE CHEYENNE WY
600 PM MDT WED AUG 16 2017

NOTE:  "FAIR" INDICATES FEW OR NO CLOUDS BELOW 12,000 FEET
WITH NO SIGNIFICANT WEATHER AND/OR OBSTRUCTIONS TO VISIBILITY.

WYZ001-170100-
YELLOWSTONE NATIONAL PARK

CITY           SKY/WX    TMP DP  RH WIND       PRES   REMARKS
LK YELLOWSTONE   N/A     65  30  27 VRB3      30.25S
6HR MIN TEMP:  52; 6HR MAX TEMP:  68; 6HR PCP:  0.01;

W YELLOWSTONE  NOT AVBL

$$
WYZ002>013-054>058-071-098>099-170100-
NORTHERN WYOMING

CITY           SKY/WX    TMP DP  RH WIND       PRES   REMARKS
JACKSON        FAIR      74  34  23 W13       30.15S
CODY           NOT AVBL
GREYBULL       FAIR      85  29  13 CALM      29.93F
6HR MIN TEMP:  77; 6HR MAX TEMP:  87;

WORLAND        FAIR      84  30  14 NE6       29.96F
6HR MIN TEMP:  76; 6HR MAX TEMP:  85;

SHERIDAN       FAIR      84  37  18 SE12      29.95F
6HR MIN TEMP:  80; 6HR MAX TEMP:  87;

BUFFALO        FAIR      78  33  19 S12       30.04S
6HR MIN TEMP:  75; 6HR MAX TEMP:  82;

GILLETTE       FAIR      81  27  14 S3        30.00F
6HR MIN TEMP:  75; 6HR MAX TEMP:  83;

HULETT         FAIR      79  41  25 SE5       30.03S
NEWCASTLE      FAIR      79  28  15 W5        30.03S

$$
WYZ014>020-022>026-101>103-170100-
CENTRAL WYOMING

CITY           SKY/WX    TMP DP  RH WIND       PRES   REMARKS
BIG PINEY      FAIR      70  40  33 VRB3      30.19F
6HR MIN TEMP:  63; 6HR MAX TEMP:  73; 6HR PCP: TRACE;

PINEDALE       CLOUDY    68  32  26 SW13      30.21S
DUBOIS         FAIR      68  32  26 N6        30.18F
LANDER           N/A    N/A N/A N/A MISG      30.04F
RIVERTON       FAIR      78  33  19 E6        30.06S
6HR MIN TEMP:  68; 6HR MAX TEMP:  79;

CASPER         FAIR      79  26  14 W8        30.07F
6HR MIN TEMP:  70; 6HR MAX TEMP:  80;

DOUGLAS        FAIR      76  39  26 W6        30.07S
6HR MIN TEMP:  70; 6HR MAX TEMP:  79;


$$
WYZ021-027>030-104>119-170100-
SOUTHERN WYOMING

CITY           SKY/WX    TMP DP  RH WIND       PRES   REMARKS
EVANSTON       FAIR      74  34  23 W17       30.22S
6HR MIN TEMP:  69; 6HR MAX TEMP:  76; 6HR PCP: TRACE;

KEMMERER         N/A     73  30  20 W16G23    30.22S
FORT BRIDGER   FAIR      75  33  21 NW9       30.24S
ROCK SPRINGS   FAIR      75  28  17 N5        30.18S
6HR MIN TEMP:  65; 6HR MAX TEMP:  76;

RAWLINS        PTSUNNY   69  36  29 S7        30.19S
6HR MIN TEMP:  64; 6HR MAX TEMP:  74;

SARATOGA       CLOUDY    64  43  45 W7        30.22R
LARAMIE        FAIR      69  33  26 NW13G21   30.20S
6HR MIN TEMP:  63; 6HR MAX TEMP:  71;

CHEYENNE       PTSUNNY   70  37  29 CALM      30.16R
6HR MIN TEMP:  67; 6HR MAX TEMP:  74;

TORRINGTON     FAIR      78  37  22 NE5       30.04S
6HR MIN TEMP:  72; 6HR MAX TEMP:  79;

PINE BLUFFS    FAIR      72  37  28 NE12      30.11S

$$




USA.gov is the U.S. government's official web portal to all federal, state and local government web resources and services.